Location: Alta
(39.2070°N, 120.8111°W)
Time: 07:18:37
(UTC+00:00)

ITAMSAT 1 - Pass Details

Date: 30 May 2024
Orbit: 781 x 796 km, 98.8° (Epoch: 20 June)

Event Time Altitude Azimuth Distance (km) Brightness Sun altitude
Exits shadow 04:47:17 11° 177° (S) 2,288 9.6 -14.0°
Maximum altitude 04:52:16 64° 258° (WSW) 871 8.0 -14.7°
Drops below altitude 10° 04:57:25 10° 340° (NNW) 2,352 11.2 -15.4°
Sets 04:59:46 0° 344° (NNW) 3,283 12.0 -15.7°
